FW6835 Weather Reports


time (UTC)temp
C
wind
direction
speed
KPH
gust
KPH
rain 1hr
cm
rain 24hr
cm
rain mn
cm
humidity
%
barometer
mb
20260505091043 18 289 1.6 12.9 0.00 0.00 0.00 73 1008.5
20260505090539 17 254 4.8 14.5 0.00 0.00 0.00 73 1008.4
20260505090054 17 226 4.8 14.5 0.00 0.00 0.00 75 1008.6
20260505085538 17 244 4.8 12.9 0.00 0.00 0.00 77 1008.5
20260505085037 17 161 1.6 11.3 0.00 0.00 0.00 75 1008.6
20260505084540 17 195 4.8 14.5 0.00 0.00 0.00 75 1008.7
20260505084036 17 265 6.4 14.5 0.00 0.00 0.00 75 1008.7
20260505083533 17 272 4.8 11.3 0.00 0.00 0.00 75 1008.6
20260505083036 17 222 3.2 8.0 0.00 0.00 0.00 76 1008.8
20260505082532 16 299 3.2 11.3 0.00 0.00 0.00 76 1008.7
20260505082031 16 270 1.6 11.3 0.00 0.00 0.00 77 1008.8
20260505081535 16 236 0.0 8.0 0.00 0.00 0.00 80 1008.7
20260505081034 16 189 3.2 8.0 0.00 0.00 0.00 77 1008.7
20260505080530 16 209 0.0 11.3 0.00 0.00 0.00 78 1008.8
20260505080030 16 237 4.8 11.3 0.00 0.00 0.00 75 1008.8
20260505075532 16 230 1.6 6.4 0.00 0.00 0.00 79 1008.8
20260505075028 16 155 1.6 8.0 0.00 0.00 0.00 76 1008.7
20260505074527 16 192 1.6 8.0 0.00 0.00 0.00 78 1008.7
20260505074027 16 189 3.2 8.0 0.00 0.00 0.00 77 1008.9
20260505073527 16 150 3.2 8.0 0.00 0.00 0.00 76 1008.9
20260505073035 16 171 1.6 6.4 0.00 0.00 0.00 77 1008.9
20260505072524 16 236 1.6 6.4 0.00 0.00 0.00 82 1009.0
20260505072024 15 173 0.0 6.4 0.00 0.00 0.00 81 1008.9
20260505071524 15 168 0.0 4.8 0.00 0.00 0.00 81 1009.0
20260505071025 15 168 1.6 4.8 0.00 0.00 0.00 83 1008.9
20260505070525 14 167 0.0 0.0 0.00 0.00 0.00 84 1008.9
20260505070022 13 167 0.0 0.0 0.00 0.00 0.00 84 1009.0
20260505065521 13 167 0.0 0.0 0.00 0.00 0.00 85 1009.2
20260505065021 13 167 0.0 0.0 0.00 0.00 0.00 85 1009.1
20260505064524 13 167 0.0 0.0 0.00 0.00 0.00 86 1009.2
20260505064020 13 167 0.0 0.0 0.00 0.00 0.00 85 1009.3
20260505063519 13 230 0.0 0.0 0.00 0.00 0.00 86 1009.2
20260505063018 13 230 0.0 1.6 0.00 0.00 0.00 86 1009.2
20260505062523 13 230 0.0 11.3 0.00 0.00 0.00 85 1009.1
20260505062016 13 230 3.2 11.3 0.00 0.00 0.00 84 1009.2
20260505061516 13 196 0.0 4.8 0.00 0.00 0.00 84 1009.2
20260505061018 13 196 0.0 4.8 0.00 0.00 0.00 84 1009.3
20260505060516 13 178 0.0 3.2 0.00 0.00 0.00 83 1009.3
20260505060025 13 178 0.0 3.2 0.00 0.00 0.00 83 1009.3
20260505055514 13 178 0.0 3.2 0.00 0.00 0.00 84 1009.2
20260505055014 13 268 0.0 0.0 0.00 0.00 0.00 83 1009.2
20260505054525 13 360 0.0 0.0 0.00 0.00 0.00 85 1008.9
20260505054014 13 360 0.0 0.0 0.00 0.00 0.00 83 1008.9
20260505053512 13 360 0.0 0.0 0.00 0.00 0.00 83 1008.9
20260505053011 13 360 0.0 0.0 0.00 0.00 0.00 82 1008.9
20260505052510 12 360 0.0 0.0 0.00 0.00 0.00 82 1008.8
20260505052011 12 360 0.0 0.0 0.00 0.00 0.00 83 1009.0
20260505051509 12 360 0.0 0.0 0.00 0.00 0.00 82 1009.0
20260505051007 12 360 0.0 0.0 0.00 0.00 0.00 82 1008.9
20260505050508 12 360 0.0 0.0 0.00 0.00 0.00 81 1008.9
20260505041559 13 355 0.0 0.0 0.00 0.00 0.00 77 1008.8
20260505041059 13 355 0.0 0.0 0.00 0.00 0.00 77 1009.0
20260505040601 13 349 0.0 0.0 0.00 0.00 0.00 77 1008.9
20260505035556 13 349 0.0 0.0 0.00 0.00 0.00 78 1009.0
20260505035056 13 349 0.0 0.0 0.00 0.00 0.00 77 1008.9
20260505034555 13 349 0.0 0.0 0.00 0.00 0.00 78 1009.0
20260505034055 13 349 0.0 0.0 0.00 0.00 0.00 77 1009.1
20260505033555 13 349 0.0 0.0 0.00 0.00 0.00 77 1009.1
20260505033112 13 348 0.0 1.6 0.00 0.00 0.00 76 1009.0
20260505032554 13 348 0.0 1.6 0.00 0.00 0.00 76 1009.2
20260505032052 13 348 0.0 0.0 0.00 0.00 0.00 76 1009.2
20260505031553 13 348 0.0 0.0 0.00 0.00 0.00 75 1009.1
20260505031055 13 348 0.0 0.0 0.00 0.00 0.00 75 1009.2
20260505030555 13 348 0.0 0.0 0.00 0.00 0.00 75 1009.2
20260505030053 13 348 0.0 0.0 0.00 0.00 0.00 75 1009.2
20260505025552 13 348 0.0 1.6 0.00 0.00 0.00 76 1009.4
20260505025051 13 348 0.0 4.8 0.00 0.00 0.00 76 1009.4
20260505024552 13 338 0.0 1.6 0.00 0.00 0.00 76 1009.5
20260505024050 13 49 0.0 3.2 0.00 0.00 0.00 77 1009.5
20260505023550 13 50 0.0 3.2 0.00 0.00 0.00 77 1009.6
20260505023100 13 12 0.0 3.2 0.00 0.00 0.00 77 1009.6
20260505022552 13 12 0.0 4.8 0.00 0.00 0.00 77 1009.8
20260505022052 13 13 1.6 4.8 0.00 0.00 0.00 77 1009.9
20260505021548 13 49 0.0 4.8 0.00 0.00 0.00 76 1009.9
20260505021046 13 57 0.0 4.8 0.00 0.00 0.00 76 1009.9
20260505020545 13 60 0.0 3.2 0.00 0.00 0.00 74 1010.0
20260505020049 13 59 0.0 1.6 0.00 0.00 0.00 75 1010.0
20260505015543 13 59 0.0 0.0 0.00 0.00 0.00 74 1010.1
20260505015045 14 59 0.0 0.0 0.00 0.00 0.00 74 1010.1
20260505014541 14 59 0.0 0.0 0.00 0.00 0.00 73 1010.3
20260505014044 14 59 0.0 0.0 0.00 0.00 0.00 73 1010.3
20260505013541 14 59 0.0 0.0 0.00 0.00 0.00 73 1010.3
20260505013040 14 59 0.0 0.0 0.00 0.00 0.00 72 1010.3
20260505012540 14 59 0.0 3.2 0.00 0.00 0.00 72 1010.4
20260505012039 14 63 0.0 3.2 0.00 0.00 0.00 73 1010.4
20260505011539 14 64 0.0 3.2 0.00 0.00 0.00 73 1010.4
20260505011037 15 65 0.0 3.2 0.00 0.00 0.00 72 1010.5
20260505010537 15 65 0.0 0.0 0.00 0.00 0.00 71 1010.7
20260505010041 15 65 0.0 0.0 0.00 0.00 0.00 70 1010.6
20260505005536 15 65 0.0 0.0 0.00 0.00 0.00 69 1010.7
20260505005036 15 65 0.0 0.0 0.00 0.00 0.00 68 1010.8
20260505004545 15 65 0.0 0.0 0.00 0.00 0.00 69 1010.8
20260505004037 15 65 0.0 0.0 0.00 0.00 0.00 67 1010.8
20260505003535 15 65 0.0 0.0 0.00 0.00 0.00 68 1010.7
20260505003038 15 65 0.0 3.2 0.00 0.00 0.00 68 1010.8
20260505002535 15 71 0.0 6.4 0.00 0.00 0.00 67 1010.6
20260505002034 15 95 3.2 6.4 0.00 0.00 0.00 67 1010.8
20260505001534 15 36 0.0 4.8 0.00 0.00 0.00 69 1010.7
20260505001034 15 80 0.0 6.4 0.00 0.00 0.00 69 1010.8
20260505000534 15 84 1.6 8.0 0.00 0.00 0.00 70 1011.0
20260505000035 15 37 3.2 8.0 0.00 0.00 0.00 70 1011.0
20260504235533 15 42 1.6 6.4 0.00 0.00 0.00 70 1010.8
20260504235134 15 65 1.6 6.4 0.00 0.00 0.00 70 1011.0
20260504234543 15 55 1.6 9.7 0.00 0.00 0.00 70 1011.1
20260504234032 15 52 1.6 9.7 0.00 0.00 0.00 70 1011.1
20260504233530 15 69 1.6 8.0 0.00 0.00 0.00 70 1011.0
20260504233034 15 68 1.6 8.0 0.00 0.00 0.00 70 1011.2
20260504232530 15 65 3.2 8.0 0.00 0.00 0.00 70 1011.2
20260504232029 15 57 3.2 9.7 0.00 0.00 0.00 70 1011.3
20260504231539 15 37 1.6 6.4 0.00 0.00 0.00 70 1011.4
20260504231030 15 78 1.6 8.0 0.00 0.00 0.00 70 1011.4
20260504230528 15 350 0.0 8.0 0.00 0.00 0.00 71 1011.4
20260504230028 15 49 1.6 8.0 0.00 0.00 0.00 70 1011.4
20260504225528 15 333 1.6 6.4 0.00 0.00 0.00 71 1011.3
20260504225029 15 65 0.0 8.0 0.00 0.00 0.00 71 1011.5
20260504224527 15 68 1.6 9.7 0.00 0.00 0.00 71 1011.6
20260504224022 15 71 1.6 9.7 0.00 0.00 0.00 72 1011.7
20260504223521 15 74 3.2 8.0 0.00 0.00 0.00 72 1011.7
20260504223022 15 78 1.6 8.0 0.00 0.00 0.00 72 1011.7
20260504222523 15 74 1.6 9.7 0.00 0.00 0.00 73 1011.5
20260504222021 15 78 1.6 9.7 0.00 0.00 0.00 73 1011.7
20260504221520 15 61 3.2 8.0 0.00 0.00 0.00 72 1011.7
20260504221022 15 153 1.6 9.7 0.00 0.00 0.00 73 1012.0
20260504220518 15 74 1.6 9.7 0.00 0.00 0.00 73 1012.1
20260504220017 15 69 1.6 9.7 0.00 0.00 0.00 74 1012.2
20260504215516 14 109 1.6 6.4 0.00 0.00 0.00 75 1012.2
20260504215020 14 61 1.6 6.4 0.00 0.00 0.00 75 1012.3
20260504214518 14 63 3.2 4.8 0.00 0.00 0.00 76 1012.2
20260504214016 14 67 3.2 4.8 0.00 0.00 0.00 76 1012.3
20260504213521 14 79 1.6 4.8 0.00 0.00 0.00 76 1012.4
20260504213016 14 80 1.6 4.8 0.00 0.00 0.00 76 1012.6
20260504212516 14 69 1.6 4.8 0.00 0.00 0.00 76 1012.6
20260504212015 14 51 0.0 4.8 0.00 0.00 0.00 76 1012.5
20260504211516 14 64 0.0 4.8 0.00 0.00 0.00 76 1012.5
20260504211015 14 65 0.0 4.8 0.00 0.00 0.00 76 1012.6
20260504210518 14 65 1.6 4.8 0.00 0.00 0.00 76 1012.5
20260504210015 13 68 1.6 4.8 0.00 0.00 0.00 76 1012.7
20260504205517 13 68 0.0 3.2 0.00 0.00 0.00 77 1012.6
20260504205015 13 69 0.0 3.2 0.00 0.00 0.00 76 1012.6
20260504204530 14 69 0.0 1.6 0.00 0.00 0.00 77 1012.7
20260504204015 14 69 0.0 3.2 0.00 0.00 0.00 76 1012.6
20260504203515 14 69 0.0 3.2 0.00 0.00 0.00 76 1012.6
20260504203014 14 71 0.0 3.2 0.00 0.00 0.00 75 1012.6
20260504202514 14 71 0.0 3.2 0.00 0.00 0.00 75 1012.7
20260504202014 14 71 0.0 3.2 0.00 0.00 0.00 75 1012.5
20260504201513 15 71 0.0 3.2 0.00 0.00 0.00 75 1012.6
20260504201013 15 71 0.0 0.0 0.00 0.00 0.00 75 1012.5
20260504200516 15 71 0.0 4.8 0.00 0.00 0.00 75 1012.6
20260504200015 15 71 0.0 4.8 0.00 0.00 0.00 76 1012.5
20260504195512 15 69 0.0 3.2 0.00 0.00 0.00 76 1012.4
20260504195012 15 69 0.0 3.2 0.00 0.00 0.00 76 1012.4
20260504194512 15 70 0.0 1.6 0.00 0.00 0.00 76 1012.5
20260504194012 15 70 0.0 3.2 0.00 0.00 0.00 76 1012.4
20260504193513 15 69 0.0 3.2 0.00 0.00 0.00 76 1012.5
20260504193020 15 48 0.0 3.2 0.00 0.00 0.00 76 1012.5
20260504192511 15 257 0.0 1.6 0.00 0.00 0.00 77 1012.5
20260504192013 15 257 0.0 1.6 0.00 0.00 0.00 77 1012.5
20260504191511 15 241 0.0 0.0 0.00 0.00 0.00 77 1012.6
20260504191011 15 241 0.0 0.0 0.00 0.00 0.00 76 1012.5
20260504190510 15 241 0.0 1.6 0.00 0.00 0.00 76 1012.5
20260504190010 15 241 0.0 3.2 0.00 0.00 0.00 76 1012.4
20260504185511 15 241 0.0 3.2 0.00 0.00 0.00 76 1012.4
20260504185012 15 239 0.0 3.2 0.00 0.00 0.00 75 1012.4
20260504184510 15 238 0.0 1.6 0.00 0.00 0.00 75 1012.2
20260504184012 15 239 0.0 0.0 0.00 0.00 0.00 75 1012.3
20260504183510 16 239 0.0 0.0 0.00 0.00 0.00 74 1012.3
20260504183009 16 238 0.0 0.0 0.00 0.00 0.00 73 1012.3
20260504182508 16 238 0.0 0.0 0.00 0.00 0.00 73 1012.3
20260504182010 16 238 0.0 0.0 0.00 0.00 0.00 72 1012.1
20260504181510 17 238 0.0 0.0 0.00 0.00 0.00 71 1012.2
20260504181007 17 238 0.0 0.0 0.00 0.00 0.00 70 1012.1
20260504180509 17 238 0.0 0.0 0.00 0.00 0.00 70 1012.1
20260504180007 17 238 0.0 0.0 0.00 0.00 0.00 69 1012.2
20260504175506 17 238 0.0 0.0 0.00 0.00 0.00 69 1012.2
20260504175006 17 233 0.0 0.0 0.00 0.00 0.00 68 1012.1
20260504174506 18 233 0.0 0.0 0.00 0.00 0.00 68 1012.2
20260504174007 18 233 0.0 1.6 0.00 0.00 0.00 67 1012.0
20260504173506 18 232 0.0 3.2 0.00 0.00 0.00 66 1012.0
20260504173006 18 246 0.0 3.2 0.00 0.00 0.00 66 1012.1
20260504172504 18 265 0.0 3.2 0.00 0.00 0.00 65 1012.1
20260504172004 18 266 0.0 6.4 0.00 0.00 0.00 64 1012.1
20260504171516 19 22 0.0 6.4 0.00 0.00 0.00 64 1012.1
20260504171005 19 229 0.0 3.2 0.00 0.00 0.00 63 1012.0
20260504170503 19 292 0.0 1.6 0.00 0.00 0.00 63 1012.1
20260504151057 21 144 3.2 11.3 0.00 0.00 0.00 52 1012.2
20260504150600 21 186 3.2 11.3 0.00 0.00 0.00 51 1012.0
20260504141053 22 191 4.8 12.9 0.00 0.00 0.00 50 1012.5
20260504140552 21 239 3.2 11.3 0.00 0.00 0.00 54 1012.5
20260504130545 20 265 1.6 9.7 0.00 0.00 0.00 55 1013.0
20260504110539 20 202 1.6 11.3 0.00 0.00 0.00 57 1013.7
20260504100532 19 246 3.2 9.7 0.00 0.00 0.00 63 1014.3